Location: Poughquag
(41.6090°N, 73.6820°W)
Time: 14:15:24
(UTC-04:00)

Courier 1B - Pass Details

Date: 02 June 2020
Orbit: 962 x 1209 km, 28.3° (Epoch: 05 July)

Event Time Altitude Azimuth Distance (km) Brightness Sun altitude
Exits shadow 01:55:07 18° 135° (SE) 2,585 9.4 -24.5°
Drops below altitude 10° 01:57:15 10° 124° (SE) 3,138 10.0 -24.4°
Sets 02:00:31 0° 114° (ESE) 4,105 10.7 -24.2°
